Theta_e
295 293 291 289 289 288 288 288 288 288 289 289 289 289 289 289 289 288 287 288 287 287 287 288 288 288 288 289 290 290 290 289 288 291 293 293 290 290 293 292 294 294 295
291 288 288 288 288 287 287 287 287 287 288 288 288 288 288 288 288 287 287 287 287 287 288 288 288 291 288 287 287 287 288 288 288 286 289 290 289 291 292 291 293 294 293
288 288 288 288 287 286 287 287 287 287 287 287 287 287 287 288 287 287 287 287 287 287 287 287 288 289 288 289 288 287 287 289 286 285 286 287 287 289 290 291 292 292 293
288 287 287 286 286 286 286 287 287 287 287 287 287 287 287 287 288 287 287 286 287 288 289 289 289 289 288 288 289 287 288 286 287 288 288 288 289 290 290 289 288 289 289
287 287 287 287 286 286 287 287 287 287 287 287 287 287 287 288 289 287 288 287 287 287 288 289 289 290 293 292 291 291 290 289 288 287 287 287 287 287 287 289 288 289 290
287 287 287 287 286 286 286 286 287 287 287 288 287 286 287 288 292 294 293 288 287 287 287 288 289 290 290 293 292 293 292 288 287 287 287 286 286 287 288 288 287 286 283
286 286 286 286 286 286 286 287 287 287 287 287 285 287 286 286 291 293 293 289 286 286 286 286 287 289 290 288 291 292 292 293 293 290 287 287 287 287 288 287 286 286 285
285 285 286 286 286 286 287 287 287 287 286 286 286 286 284 285 291 292 293 288 286 285 285 285 285 286 287 289 288 288 288 289 290 290 289 288 289 289 290 289 288 287 288
285 285 286 286 287 287 287 287 287 286 286 285 285 284 283 284 290 292 291 286 285 284 285 285 286 286 290 292 289 287 287 287 292 293 294 294 295 295 294 291 288 287 285
286 286 287 287 287 287 287 286 286 285 285 285 284 284 286 285 289 291 291 286 283 284 284 286 290 290 291 292 289 288 286 287 288 289 290 291 293 292 293 292 289 285 285
287 287 287 287 286 286 286 285 284 283 283 283 282 283 282 284 283 290 291 287 284 284 285 286 287 291 291 292 292 289 288 290 290 289 289 288 286 287 288 289 289 288 285
285 286 286 286 285 285 283 282 282 281 280 280 279 280 282 282 286 288 290 290 290 285 285 286 286 290 291 292 291 291 291 291 288 286 284 284 284 285 287 287 288 288 289
284 284 284 283 283 283 281 280 280 280 279 280 279 280 280 282 282 288 290 290 290 287 286 287 290 290 291 290 290 290 290 287 286 283 282 284 285 286 286 286 287 287 286
283 283 282 281 282 281 282 282 280 280 280 280 280 279 280 280 281 282 283 284 287 287 288 287 288 290 290 289 287 286 285 286 285 283 283 284 286 285 285 285 284 285 284
282 281 280 281 280 280 280 281 281 282 282 281 282 280 280 280 283 287 287 286 286 287 288 287 285 285 283 282 282 283 285 284 283 284 284 283 284 285 284 285 284 284 282
280 280 280 281 280 281 280 281 286 288 289 290 291 289 287 289 291 291 291 291 290 290 286 284 283 281 281 281 281 282 282 284 284 284 283 283 283 283 283 284 284 282 280
280 280 280 282 281 280 280 279 279 283 288 288 289 289 289 289 290 290 290 290 289 289 282 282 281 281 281 281 282 281 281 283 284 284 283 283 284 284 284 283 282 281 279
280 285 282 280 280 281 280 280 280 280 279 281 286 287 288 288 289 288 288 288 284 283 281 282 280 281 281 280 280 281 282 283 284 283 283 284 284 284 283 278 280 280 279
281 281 281 281 281 282 282 281 280 280 280 281 282 284 286 287 288 288 288 283 281 280 282 281 281 280 280 281 281 281 281 282 283 283 284 284 284 284 279 278 280 283 281
281 285 285 283 282 281 281 280 280 280 280 281 282 282 283 283 282 282 282 281 281 282 280 280 281 281 281 281 280 281 281 281 282 282 283 284 282 283 281 280 280 279 280
280 281 284 282 280 281 281 281 281 281 282 282 282 283 286 283 282 281 280 281 280 280 280 280 280 280 280 280 280 281 281 281 281 282 283 283 281 281 280 280 280 280 280
280 281 281 282 283 283 283 283 283 281 281 281 281 282 285 282 280 280 281 279 280 281 281 280 280 280 280 280 280 281 282 281 282 283 283 282 281 279 280 279 279 277 277
280 282 282 283 283 284 282 282 282 281 281 281 281 281 281 280 280 279 279 279 280 280 280 280 280 280 280 281 282 282 282 282 283 284 281 278 278 278 278 276 276 275 276
284 283 282 282 282 282 282 281 281 282 282 282 280 280 280 279 278 278 279 279 279 279 280 280 280 280 280 280 282 282 283 284 284 283 281 278 276 278 276 276 276 278 277
283 282 282 282 281 281 281 281 280 280 280 279 279 279 278 278 278 278 279 279 279 278 279 279 280 280 280 280 280 281 283 285 283 282 280 278 278 278 277 278 278 278 276
283 282 282 281 280 279 279 279 279 278 278 278 277 277 277 277 278 278 278 278 277 278 278 279 279 280 279 279 280 282 285 284 282 284 279 278 277 278 279 278 276 274 273
Wind_Speed
5 4 5 3 3 4 3 2 2 3 3 4 4 4 4 5 5 5 5 5 6 6 5 6 7 6 5 4 4 4 4 4 9 9 7 6 4 6 7 6 6 8 9
4 5 5 4 3 4 3 3 2 3 2 3 4 5 5 6 6 6 6 6 6 6 6 6 7 7 8 6 4 6 5 5 5 12 6 5 6 7 9 8 8 7 7
5 5 5 4 5 5 4 3 2 2 3 4 4 4 5 5 6 6 6 6 5 6 6 6 9 8 9 7 6 6 5 5 4 5 8 4 4 4 9 8 9 9 6
5 5 5 4 4 3 2 2 3 2 3 4 5 6 6 6 5 6 6 6 6 6 6 6 8 9 10 8 7 6 5 4 5 8 9 11 9 6 7 9 8 5 6
5 3 3 3 3 3 2 2 3 3 4 5 5 6 6 5 5 6 5 6 6 7 6 7 8 10 18 16 9 9 9 8 9 9 9 8 8 8 9 8 9 9 10
6 5 4 3 3 1 2 3 4 5 5 5 6 6 6 6 11 14 11 5 6 6 8 9 9 13 12 17 19 20 17 11 11 9 9 10 11 10 9 8 9 9 11
6 5 5 4 3 3 3 4 5 6 5 6 6 6 7 7 14 16 17 6 5 7 7 8 9 8 15 10 15 20 17 21 21 15 13 12 14 11 11 12 12 11 12
6 4 4 3 3 3 4 5 6 5 6 6 6 6 6 8 16 17 17 7 6 7 7 8 9 11 10 14 12 11 11 11 12 11 13 13 13 12 13 13 14 14 13
5 4 4 3 4 5 6 6 5 5 6 5 5 7 7 8 17 18 15 7 6 7 7 8 9 10 14 21 14 12 12 11 14 22 23 26 27 29 24 13 11 10 9
5 5 4 5 6 7 6 6 4 4 5 5 7 6 10 9 15 19 16 5 6 5 7 9 17 14 20 22 15 13 14 14 15 15 14 15 17 16 24 14 10 11 11
4 4 5 6 7 7 6 4 5 6 6 7 7 7 8 9 9 17 18 8 5 6 7 8 6 16 20 24 24 14 15 17 17 13 10 9 9 10 8 10 9 10 11
3 5 6 7 5 4 6 6 6 6 6 7 6 6 6 7 13 14 16 18 17 8 9 8 7 20 24 26 22 24 28 24 11 8 7 9 10 9 8 8 10 9 10
4 7 7 7 6 6 6 7 5 6 5 7 5 7 7 6 6 14 18 18 17 10 8 14 25 25 26 19 20 25 26 10 9 8 9 10 10 9 9 9 9 9 8
6 7 6 6 7 6 4 5 5 6 6 6 7 7 7 6 7 5 6 7 13 12 13 12 15 21 24 17 16 11 9 9 8 9 8 8 9 7 8 7 8 5 4
7 6 6 5 6 6 6 6 6 7 7 7 7 5 7 8 9 14 14 10 9 12 18 11 9 8 7 8 6 10 8 8 8 8 8 8 9 8 8 7 6 4 4
6 6 6 5 5 5 6 8 13 17 20 19 20 15 10 18 22 22 21 22 23 24 11 10 9 8 10 9 8 10 8 12 8 8 7 8 8 8 8 5 3 3 2
6 6 6 8 6 6 7 6 8 13 18 18 18 18 19 19 21 20 21 22 23 19 8 9 9 9 10 7 9 7 11 10 8 7 8 9 7 7 8 4 3 2 1
7 13 7 6 6 7 6 7 7 7 9 12 12 14 17 20 21 21 22 21 9 8 7 10 7 10 5 9 8 9 10 7 6 7 8 8 6 6 4 2 2 2 2
6 5 6 6 6 8 7 7 7 8 8 9 9 10 12 17 19 21 20 7 8 9 8 6 10 7 9 8 9 8 9 8 8 7 7 6 5 4 2 2 3 6 5
6 13 13 7 7 6 6 7 8 8 9 8 8 8 6 9 8 6 4 7 8 6 8 10 8 8 8 9 8 9 9 7 7 6 6 5 4 3 3 3 3 2 2
5 6 13 7 6 7 7 8 9 8 7 7 8 8 20 12 8 8 9 8 5 10 8 8 8 9 8 8 9 8 8 7 6 6 5 4 2 1 1 2 2 2 3
5 5 6 7 8 8 8 8 6 9 9 9 9 9 21 9 9 8 6 8 8 8 7 8 8 8 8 8 9 8 8 7 7 6 5 3 2 2 2 2 3 2 2
5 6 7 8 8 13 10 9 9 9 9 9 9 7 8 8 7 7 9 8 8 7 7 7 8 8 8 8 7 8 7 7 6 4 3 2 2 2 2 2 2 2 2
6 7 8 8 8 9 9 10 10 11 9 7 7 9 8 5 10 9 9 8 7 8 8 8 8 10 10 9 7 5 6 4 4 3 3 3 2 3 2 2 2 2 2
6 7 8 8 9 9 8 7 8 8 7 8 9 6 8 8 9 9 8 7 7 8 9 8 7 10 11 7 7 7 5 5 2 1 2 4 4 5 3 2 2 2 2
6 6 7 7 7 7 8 7 8 7 6 8 8 8 9 9 9 8 7 7 7 7 10 8 8 10 7 6 6 4 3 5 4 5 3 3 3 3 2 2 3 2 2
Wind_Direction
171 150 134 120 105 98 99 89 61 44 27 16 357 352 349 346 343 345 336 322 332 319 320 319 305 297 286 287 282 268 257 238 270 280 285 287 259 264 273 267 254 247 248
164 139 148 151 127 124 118 99 75 44 16 4 358 353 343 336 330 328 319 313 312 315 313 311 301 309 297 281 272 269 255 261 273 287 288 294 280 280 272 269 265 257 239
157 160 166 167 149 150 146 126 91 55 6 345 342 325 314 311 310 302 294 299 299 302 301 300 300 300 297 296 276 274 263 277 270 280 289 261 262 281 293 287 276 267 254
179 179 175 170 154 133 110 70 31 352 326 315 304 299 299 299 291 289 290 292 289 285 281 280 292 297 296 301 299 277 278 273 276 287 294 298 293 280 269 285 284 259 263
174 175 179 154 124 109 71 358 313 306 297 291 289 286 287 294 289 292 278 275 279 280 277 276 282 285 296 299 303 305 306 301 294 292 292 293 295 293 284 287 284 283 278
162 179 174 141 139 173 245 268 289 288 285 283 282 285 293 290 294 301 309 283 279 274 284 289 285 290 288 299 301 300 290 288 283 275 275 279 282 278 275 274 275 277 282
152 164 168 173 200 229 262 278 279 280 280 278 279 277 277 277 294 303 308 291 266 270 273 279 285 289 291 271 274 286 287 284 283 283 280 274 280 276 279 280 271 264 266
146 161 185 202 235 266 278 278 274 271 270 272 277 271 274 280 292 300 303 290 274 263 260 267 269 278 277 291 280 273 268 269 273 269 266 269 266 267 264 268 266 265 267
156 185 204 219 257 270 267 265 265 264 270 260 261 275 272 278 293 302 302 283 261 258 253 253 264 268 279 296 292 287 282 272 267 268 272 279 282 279 277 278 272 265 271
187 198 198 224 245 254 252 261 258 250 267 271 272 259 267 276 285 296 300 277 269 263 258 257 264 279 288 298 296 293 289 286 286 279 280 282 279 273 280 270 276 269 268
176 204 242 250 254 252 262 254 259 267 272 267 263 268 263 265 274 289 297 296 269 280 279 282 272 291 296 296 294 292 286 287 287 288 281 284 276 278 264 262 252 257 263
220 253 268 271 264 265 265 277 271 267 266 270 268 276 270 265 277 284 295 301 299 295 289 288 285 291 292 295 299 297 300 300 292 282 280 285 286 280 268 267 265 259 255
288 282 274 278 280 274 269 271 272 260 257 275 259 271 277 279 266 283 295 299 297 290 284 282 296 298 294 298 296 297 301 289 285 275 278 282 287 271 273 275 264 258 260
272 268 278 283 289 273 264 259 261 269 271 272 272 268 273 271 274 270 273 279 280 285 286 287 292 292 297 287 295 296 287 280 271 269 271 272 286 269 273 266 270 251 234
268 275 277 265 267 277 262 265 266 264 255 273 272 252 269 277 275 278 283 288 290 289 303 299 292 291 288 288 277 291 275 273 270 268 274 274 283 277 270 271 241 231 212
273 275 269 278 272 273 280 291 281 279 285 282 279 276 279 279 287 290 291 291 294 299 297 292 285 292 289 283 280 294 278 291 281 269 274 277 280 281 278 263 215 208 177
278 285 284 288 282 280 284 278 290 302 295 289 287 288 287 285 292 294 295 296 298 305 293 292 280 293 285 278 292 288 289 284 280 278 275 278 278 274 281 235 200 175 153
288 291 292 286 280 285 277 275 275 277 291 302 303 297 296 297 301 304 305 307 300 293 274 285 282 293 295 297 290 286 294 301 279 282 281 280 271 274 264 190 173 161 146
294 291 289 284 282 281 282 277 272 276 277 283 295 296 292 296 299 297 301 291 282 283 286 285 291 282 290 288 285 285 286 279 292 290 287 283 272 272 204 171 176 192 166
296 299 305 300 296 292 291 287 286 280 279 278 283 288 292 295 287 280 269 282 281 281 300 288 282 286 288 286 289 283 289 294 280 285 284 281 269 236 183 163 163 149 136
285 293 304 305 299 293 289 287 284 284 286 287 287 286 297 303 304 292 293 296 296 298 288 291 287 285 282 280 282 284 283 282 280 282 278 268 208 183 150 131 130 128 127
293 298 301 300 297 293 288 286 291 292 291 291 291 291 299 300 291 288 291 305 295 288 286 284 281 282 280 278 278 279 282 286 287 287 272 231 186 160 138 121 124 114 115
284 291 296 297 293 295 295 290 285 286 286 284 284 293 298 296 297 311 303 299 292 289 288 283 284 283 279 275 273 274 279 281 280 278 267 153 128 120 118 120 123 108 113
294 297 297 295 296 298 298 297 294 291 300 310 306 295 295 310 305 299 293 289 290 290 288 286 283 281 285 283 278 270 279 277 278 272 193 136 135 136 105 101 122 114 123
297 298 297 298 297 301 311 319 316 306 301 302 302 304 307 297 294 292 291 290 291 292 291 289 288 289 287 295 294 290 288 302 341 76 114 120 137 139 126 126 119 111 106
302 298 304 310 307 307 306 304 304 305 314 308 301 297 298 296 292 291 293 293 293 296 298 293 291 294 308 298 302 313 61 71 69 87 87 95 107 105 101 105 122 123 136